Weather History for KDRO - November, 2013

Change the Weather History Date:

Saturday, November 16, 2013

  Actual Average Record
Temperature  
Mean Temperature 38 °F 35 °F  
Max Temperature 45 °F 49 °F 67 °F (1975)
Min Temperature 31 °F 22 °F 7 °F (2000)
Degree Days  
Heating Degree Days 27 30  
Month to date heating degree days 425 432  
Since 1 July heating degree days 1254 1220  
Cooling Degree Days 0 0  
Month to date cooling degree days 0 0  
Year to date cooling degree days 388 243  
Moisture  
Dew Point 33 °F    
Average Humidity 81    
Maximum Humidity 100    
Minimum Humidity 62    
Precipitation  
Precipitation 0.04 in 0.06 in 1.12 in (1971)
Month to date precipitation 0.23 0.93  
Year to date precipitation 14.33 14.15  
Sea Level Pressure  
Sea Level Pressure 29.73 in    
Wind  
Wind Speed 7 mph (WSW)    
Max Wind Speed 21 mph    
Max Gust Speed 26 mph    
Visibility 9 miles    
Events Rain    
T = Trace of Precipitation, MM = Missing Value Source: NWS Daily Summary

Daily Weather History Graph

Daily Weather History Graph

Search for Another Location

Airport or City:

Trip Planner

Search our weather history database for the weather conditions in past years. The results will help you decide how hot, cold, wet, or windy it might be!

Date:

Astronomy

Nov. 16, 2013 Rise Set
Actual Time 6:51 AM MST 5:00 PM MST
Civil Twilight 6:23 AM MST 5:27 PM MST
Nautical Twilight 5:51 AM MST 5:59 PM MST
Astronomical Twilight 5:21 AM MST 6:30 PM MST
Moon 4:36 PM MST (11/16) 5:51 AM MST (11/16)
Length of Visible Light 11h 04m
Length of Day
10h 08m
Waxing Gibbous, 99% of the Moon is Illuminated
Nov 16
Waxing Gibbous
Nov 17
Full
Nov 25
Last Quarter
Dec 2
New
Dec 9
First Quarter

Hourly Weather History & Observations

Time (MST) Temp. Windchill Dew Point Humidity Pressure Visibility Wind Dir Wind Speed Gust Speed Precip Events Conditions
12:53 AM 33.1 °F - 30.9 °F 92% 29.70 in 10.0 mi Calm Calm - N/A   Mostly Cloudy
1:53 AM 32.0 °F 28.7 °F 30.9 °F 96% 29.70 in 10.0 mi ENE 3.5 mph - 0.00 in   Mostly Cloudy
2:53 AM 30.9 °F - 30.9 °F 100% 29.70 in 10.0 mi Calm Calm - N/A   Partly Cloudy
3:53 AM 30.9 °F - 30.9 °F 100% 29.72 in 6.0 mi Calm Calm - N/A   Mostly Cloudy
4:53 AM 32.0 °F 27.5 °F 30.9 °F 96% 29.74 in 10.0 mi North 4.6 mph - N/A   Overcast
5:39 AM 32.0 °F - 32.0 °F 100% 29.75 in 8.0 mi Calm Calm - 0.00 in   Overcast
5:53 AM 32.0 °F - 32.0 °F 100% 29.76 in 6.0 mi Calm Calm - 0.00 in   Overcast
6:53 AM 32.0 °F 28.7 °F 32.0 °F 100% 29.77 in 8.0 mi South 3.5 mph - 0.01 in   Overcast
7:06 AM 33.8 °F 30.8 °F 33.8 °F 100% 29.76 in 10.0 mi SSW 3.5 mph - N/A   Mostly Cloudy
7:13 AM 33.8 °F - 32.0 °F 93% 29.77 in 10.0 mi Calm Calm - N/A   Mostly Cloudy
7:53 AM 33.1 °F 30.0 °F 33.1 °F 100% 29.78 in 6.0 mi East 3.5 mph - N/A   Overcast
8:53 AM 37.0 °F - 35.1 °F 93% 29.78 in 10.0 mi Calm Calm - N/A   Mostly Cloudy
9:00 AM 37.4 °F - 35.6 °F 93% 29.80 in 9.0 mi Calm Calm - N/A   Overcast
9:53 AM 37.9 °F - 35.1 °F 89% 29.79 in 10.0 mi Calm Calm - 0.00 in Rain Light Rain
10:53 AM 42.1 °F 40.2 °F 37.0 °F 82% 29.76 in 10.0 mi West 3.5 mph - 0.00 in   Scattered Clouds
11:53 AM 43.0 °F 35.4 °F 35.1 °F 74% 29.72 in 10.0 mi West 16.1 mph 25.3 mph 0.00 in Rain Light Rain
12:53 PM 43.0 °F 37.2 °F 36.0 °F 76% 29.70 in 10.0 mi West 10.4 mph - 0.03 in   Mostly Cloudy
1:53 PM 44.1 °F 38.6 °F 33.1 °F 65% 29.68 in 10.0 mi WSW 10.4 mph - N/A   Mostly Cloudy
2:53 PM 44.1 °F 39.5 °F 34.0 °F 68% 29.67 in 10.0 mi WSW 8.1 mph - N/A   Overcast
3:53 PM 43.0 °F 38.8 °F 33.1 °F 68% 29.68 in 10.0 mi WNW 6.9 mph - N/A   Overcast
4:53 PM 41.0 °F 38.0 °F 35.1 °F 79% 29.67 in 10.0 mi WNW 4.6 mph - 0.00 in   Overcast
5:53 PM 39.9 °F 35.8 °F 35.1 °F 83% 29.70 in 10.0 mi WSW 5.8 mph - 0.00 in Rain Light Rain
6:53 PM 42.1 °F 34.9 °F 34.0 °F 73% 29.69 in 10.0 mi West 13.8 mph - 0.00 in   Overcast
7:53 PM 43.0 °F 36.8 °F 32.0 °F 65% 29.71 in 10.0 mi West 11.5 mph 20.7 mph N/A   Overcast
8:53 PM 43.0 °F 35.4 °F 30.9 °F 62% 29.71 in 10.0 mi West 16.1 mph 26.5 mph 0.00 in   Overcast
9:53 PM 42.1 °F 35.2 °F 30.9 °F 65% 29.74 in 10.0 mi WSW 12.7 mph - N/A   Overcast
10:53 PM 41.0 °F 33.5 °F 30.9 °F 67% 29.74 in 10.0 mi WSW 13.8 mph - N/A   Overcast
11:53 PM 39.9 °F 31.8 °F 30.9 °F 70% 29.76 in 10.0 mi West 15.0 mph - N/A   Overcast